| time (UTC) | temp F | wind direction | speed MPH | gust MPH | rain 1hr in | rain 24hr in | rain mn in | humidity % | barometer mb |
| 20260506033609 | 28 | 0 | 0.0 | 0.0 | 0.05 | 0.32 | 0.32 | 88 | 1012.9 |
| 20260506032708 | 28 | 0 | 0.0 | 0.0 | 0.05 | 0.31 | 0.31 | 88 | 1012.0 |
| 20260506031808 | 28 | 0 | 0.0 | 0.0 | 0.05 | 0.31 | 0.31 | 88 | 1012.0 |
| 20260506030908 | 28 | 0 | 0.0 | 0.0 | 0.04 | 0.31 | 0.30 | 88 | 1012.0 |
| 20260506030008 | 28 | 121 | 0.0 | 2.0 | 0.05 | 0.32 | 0.30 | 88 | 1012.0 |
| 20260506025408 | 28 | 0 | 0.0 | 0.0 | 0.04 | 0.32 | 0.29 | 88 | 1012.0 |
| 20260506024508 | 29 | 0 | 0.0 | 0.0 | 0.03 | 0.35 | 0.28 | 87 | 1012.0 |
| 20260506023629 | 29 | 0 | 0.0 | 0.0 | 0.02 | 0.38 | 0.27 | 86 | 1012.0 |
| 20260506022708 | 30 | 0 | 0.0 | 0.0 | 0.01 | 0.41 | 0.26 | 87 | 1010.9 |
| 20260506021807 | 30 | 121 | 0.0 | 1.0 | 0.01 | 0.44 | 0.26 | 86 | 1010.9 |
| 20260506020929 | 30 | 121 | 0.0 | 1.0 | 0.02 | 0.44 | 0.26 | 86 | 1010.9 |
| 20260506020029 | 30 | 121 | 0.0 | 1.0 | 0.01 | 0.43 | 0.25 | 86 | 1010.9 |
| 20260506015408 | 30 | 121 | 0.0 | 1.0 | 0.02 | 0.43 | 0.25 | 86 | 1010.9 |
| 20260506014529 | 30 | 122 | 0.0 | 2.0 | 0.02 | 0.43 | 0.25 | 86 | 1010.9 |
| 20260506013607 | 31 | 123 | 0.0 | 1.0 | 0.03 | 0.43 | 0.25 | 87 | 1010.9 |
| 20260506012707 | 31 | 0 | 0.0 | 0.0 | 0.04 | 0.43 | 0.25 | 88 | 1010.7 |
| 20260506011807 | 32 | 0 | 0.0 | 0.0 | 0.05 | 0.43 | 0.25 | 88 | 1010.7 |
| 20260506010907 | 32 | 0 | 0.0 | 0.0 | 0.05 | 0.42 | 0.24 | 88 | 1010.7 |
| 20260506010028 | 32 | 0 | 0.0 | 0.0 | 0.06 | 0.42 | 0.24 | 88 | 1010.7 |
| 20260506005408 | 32 | 123 | 0.0 | 2.0 | 0.06 | 0.41 | 0.23 | 89 | 1010.7 |
| 20260506004528 | 32 | 123 | 0.0 | 1.0 | 0.08 | 0.41 | 0.23 | 89 | 1010.7 |
| 20260506003610 | 32 | 0 | 0.0 | 0.0 | 0.09 | 0.40 | 0.22 | 89 | 1010.7 |
| 20260506002707 | 32 | 0 | 0.0 | 0.0 | 0.10 | 0.39 | 0.21 | 89 | 1010.7 |
| 20260506001808 | 32 | 0 | 0.0 | 0.0 | 0.12 | 0.38 | 0.20 | 89 | 1010.7 |
| 20260506000910 | 32 | 123 | 0.0 | 1.0 | 0.13 | 0.37 | 0.19 | 89 | 1010.7 |
| 20260506000007 | 32 | 123 | 0.0 | 1.0 | 0.15 | 0.36 | 0.18 | 89 | 1010.7 |
| 20260505235428 | 32 | 123 | 0.0 | 1.0 | 0.14 | 0.35 | 0.17 | 89 | 1010.7 |
| 20260505234509 | 31 | 0 | 0.0 | 0.0 | 0.13 | 0.33 | 0.15 | 89 | 1010.7 |
| 20260505233613 | 32 | 0 | 0.0 | 0.0 | 0.12 | 0.31 | 0.13 | 89 | 1010.7 |
| 20260505232712 | 31 | 0 | 0.0 | 0.0 | 0.10 | 0.29 | 0.11 | 89 | 1010.4 |
| 20260505231812 | 31 | 0 | 0.0 | 0.0 | 0.07 | 0.26 | 0.08 | 89 | 1010.4 |
| 20260505230913 | 31 | 123 | 0.0 | 1.0 | 0.05 | 0.24 | 0.06 | 88 | 1010.4 |
| 20260505230012 | 31 | 0 | 0.0 | 0.0 | 0.03 | 0.21 | 0.03 | 88 | 1010.4 |
| 20260505225412 | 31 | 0 | 0.0 | 0.0 | 0.03 | 0.21 | 0.03 | 88 | 1010.4 |
| 20260505224512 | 32 | 123 | 0.0 | 1.0 | 0.02 | 0.20 | 0.02 | 87 | 1010.4 |
| 20260505223633 | 32 | 127 | 0.0 | 3.0 | 0.01 | 0.19 | 0.01 | 87 | 1010.4 |
| 20260505222712 | 32 | 157 | 0.0 | 4.0 | 0.01 | 0.19 | 0.01 | 87 | 1010.8 |
| 20260505221812 | 32 | 0 | 0.0 | 0.0 | 0.01 | 0.19 | 0.01 | 87 | 1010.8 |
| 20260505220912 | 32 | 182 | 0.0 | 1.0 | 0.01 | 0.19 | 0.01 | 86 | 1010.8 |
| 20260505220033 | 33 | 181 | 0.0 | 2.0 | 0.00 | 0.18 | 0.00 | 85 | 1010.8 |
| 20260505215412 | 33 | 127 | 0.0 | 4.0 | 0.00 | 0.18 | 0.00 | 84 | 1010.8 |
| 20260505214511 | 34 | 163 | 1.0 | 3.0 | 0.00 | 0.18 | 0.00 | 83 | 1010.8 |
| 20260505213611 | 35 | 88 | 1.0 | 4.0 | 0.00 | 0.18 | 0.00 | 79 | 1010.8 |
| 20260505212711 | 36 | 114 | 1.0 | 5.0 | 0.00 | 0.18 | 0.00 | 80 | 1010.8 |
| 20260505211812 | 36 | 101 | 3.0 | 7.0 | 0.00 | 0.18 | 0.00 | 81 | 1010.8 |
| 20260505210912 | 36 | 89 | 1.0 | 6.0 | 0.00 | 0.18 | 0.00 | 83 | 1010.8 |
| 20260505210012 | 35 | 81 | 1.0 | 4.0 | 0.00 | 0.18 | 0.00 | 81 | 1010.8 |
| 20260505205413 | 35 | 79 | 1.0 | 4.0 | 0.00 | 0.18 | 0.00 | 80 | 1010.8 |
| 20260505204511 | 35 | 93 | 1.0 | 5.0 | 0.00 | 0.18 | 0.00 | 82 | 1010.8 |
| 20260505203611 | 35 | 107 | 2.0 | 8.0 | 0.00 | 0.18 | 0.00 | 78 | 1010.8 |
| 20260505202711 | 36 | 97 | 4.0 | 9.0 | 0.00 | 0.18 | 0.00 | 77 | 1010.8 |
| 20260505201812 | 37 | 92 | 3.0 | 8.0 | 0.00 | 0.18 | 0.00 | 78 | 1010.8 |
| 20260505200911 | 36 | 168 | 2.0 | 8.0 | 0.00 | 0.18 | 0.00 | 80 | 1010.8 |
| 20260505200024 | 36 | 134 | 1.0 | 4.0 | 0.00 | 0.18 | 0.00 | 78 | 1010.8 |
| 20260505195413 | 37 | 103 | 2.0 | 7.0 | 0.00 | 0.18 | 0.00 | 81 | 1010.8 |
| 20260505194532 | 36 | 100 | 3.0 | 9.0 | 0.00 | 0.18 | 0.00 | 82 | 1010.8 |
| 20260505193611 | 36 | 106 | 2.0 | 7.0 | 0.00 | 0.18 | 0.00 | 79 | 1010.8 |
| 20260505192732 | 36 | 94 | 2.0 | 7.0 | 0.00 | 0.18 | 0.00 | 78 | 1011.3 |
| 20260505191812 | 36 | 104 | 3.0 | 7.0 | 0.00 | 0.18 | 0.00 | 78 | 1011.3 |
| 20260505190932 | 36 | 104 | 3.0 | 7.0 | 0.00 | 0.18 | 0.00 | 79 | 1011.3 |
| 20260505190012 | 36 | 95 | 2.0 | 6.0 | 0.00 | 0.18 | 0.00 | 80 | 1011.3 |
| 20260505185411 | 36 | 101 | 4.0 | 9.0 | 0.00 | 0.18 | 0.00 | 80 | 1011.3 |
| 20260505184512 | 36 | 99 | 5.0 | 9.0 | 0.00 | 0.18 | 0.00 | 80 | 1011.3 |
| 20260505183632 | 37 | 97 | 3.0 | 9.0 | 0.00 | 0.18 | 0.00 | 78 | 1011.3 |
| 20260505182714 | 37 | 105 | 4.0 | 10.0 | 0.00 | 0.18 | 0.00 | 80 | 1011.9 |
| 20260505181811 | 36 | 96 | 2.0 | 7.0 | 0.00 | 0.18 | 0.00 | 81 | 1011.9 |
| 20260505180911 | 35 | 102 | 2.0 | 6.0 | 0.00 | 0.18 | 0.00 | 81 | 1011.9 |
| 20260505180011 | 36 | 97 | 2.0 | 8.0 | 0.00 | 0.18 | 0.00 | 80 | 1011.9 |
| 20260505175411 | 35 | 102 | 2.0 | 6.0 | 0.00 | 0.18 | 0.00 | 82 | 1011.9 |
| 20260505174532 | 35 | 111 | 2.0 | 7.0 | 0.00 | 0.18 | 0.00 | 82 | 1011.9 |
| 20260505173611 | 34 | 111 | 2.0 | 7.0 | 0.00 | 0.18 | 0.00 | 83 | 1011.9 |
| 20260505172711 | 35 | 134 | 1.0 | 4.0 | 0.00 | 0.18 | 0.00 | 83 | 1012.3 |
| 20260505171811 | 35 | 87 | 2.0 | 6.0 | 0.00 | 0.18 | 0.00 | 82 | 1012.3 |
| 20260505170911 | 35 | 107 | 3.0 | 7.0 | 0.00 | 0.18 | 0.00 | 82 | 1012.3 |
| 20260505170011 | 35 | 97 | 2.0 | 5.0 | 0.00 | 0.18 | 0.00 | 84 | 1012.3 |
| 20260505165432 | 35 | 94 | 2.0 | 9.0 | 0.00 | 0.18 | 0.00 | 84 | 1012.3 |
| 20260505164511 | 35 | 96 | 3.0 | 6.0 | 0.00 | 0.18 | 0.00 | 82 | 1012.3 |
| 20260505163611 | 34 | 98 | 1.0 | 7.0 | 0.00 | 0.18 | 0.00 | 82 | 1012.3 |
| 20260505162735 | 34 | 89 | 0.0 | 3.0 | 0.00 | 0.18 | 0.00 | 83 | 1012.5 |
| 20260505161811 | 34 | 81 | 1.0 | 4.0 | 0.00 | 0.18 | 0.00 | 84 | 1012.5 |
| 20260505160910 | 34 | 83 | 1.0 | 4.0 | 0.00 | 0.18 | 0.00 | 84 | 1012.5 |
| 20260505152710 | 34 | 98 | 1.0 | 4.0 | 0.00 | 0.18 | 0.00 | 87 | 1012.9 |
| 20260505151810 | 33 | 100 | 0.0 | 4.0 | 0.00 | 0.18 | 0.00 | 87 | 1012.9 |
| 20260505150910 | 34 | 103 | 1.0 | 4.0 | 0.00 | 0.18 | 0.00 | 87 | 1012.9 |
| 20260505124510 | 34 | 166 | 0.0 | 3.0 | 0.00 | 0.18 | 0.00 | 89 | 1011.8 |
| 20260505123610 | 35 | 133 | 1.0 | 7.0 | 0.00 | 0.18 | 0.00 | 89 | 1011.8 |
| 20260505122709 | 35 | 71 | 0.0 | 3.0 | 0.00 | 0.18 | 0.00 | 89 | 1011.3 |
| 20260505121810 | 36 | 0 | 0.0 | 0.0 | 0.00 | 0.18 | 0.00 | 88 | 1011.3 |
| 20260505120910 | 36 | 106 | 0.0 | 3.0 | 0.00 | 0.18 | 0.00 | 88 | 1011.3 |
| 20260505120010 | 37 | 144 | 0.0 | 1.0 | 0.00 | 0.18 | 0.00 | 86 | 1011.3 |
| 20260505115410 | 37 | 144 | 0.0 | 1.0 | 0.00 | 0.18 | 0.00 | 86 | 1011.3 |
| 20260505114509 | 37 | 234 | 0.0 | 1.0 | 0.00 | 0.18 | 0.00 | 85 | 1011.3 |
| 20260505113610 | 37 | 234 | 0.0 | 2.0 | 0.00 | 0.18 | 0.00 | 85 | 1011.3 |
| 20260505112713 | 37 | 234 | 0.0 | 2.0 | 0.00 | 0.18 | 0.00 | 85 | 1011.3 |
| 20260505111810 | 37 | 0 | 0.0 | 0.0 | 0.00 | 0.18 | 0.00 | 85 | 1011.3 |
| 20260505110909 | 37 | 0 | 0.0 | 0.0 | 0.00 | 0.18 | 0.00 | 86 | 1011.3 |
| 20260505101809 | 36 | 0 | 0.0 | 0.0 | 0.00 | 0.18 | 0.00 | 87 | 1011.3 |
| 20260505100909 | 36 | 0 | 0.0 | 0.0 | 0.00 | 0.18 | 0.00 | 87 | 1011.3 |
| 20260505100010 | 36 | 0 | 0.0 | 0.0 | 0.00 | 0.18 | 0.00 | 87 | 1011.7 |
| 20260505095409 | 36 | 0 | 0.0 | 0.0 | 0.00 | 0.18 | 0.00 | 87 | 1011.7 |
| 20260505094509 | 36 | 0 | 0.0 | 0.0 | 0.00 | 0.18 | 0.00 | 88 | 1011.7 |
| 20260505093609 | 36 | 0 | 0.0 | 0.0 | 0.00 | 0.18 | 0.00 | 88 | 1011.7 |
| 20260505092709 | 36 | 0 | 0.0 | 0.0 | 0.00 | 0.18 | 0.00 | 88 | 1012.5 |
| 20260505091809 | 36 | 0 | 0.0 | 0.0 | 0.00 | 0.18 | 0.00 | 88 | 1012.5 |
| 20260505090909 | 36 | 0 | 0.0 | 0.0 | 0.00 | 0.18 | 0.00 | 88 | 1012.5 |
| 20260505090018 | 36 | 0 | 0.0 | 0.0 | 0.00 | 0.18 | 0.00 | 88 | 1012.5 |
| 20260505085409 | 36 | 0 | 0.0 | 0.0 | 0.00 | 0.18 | 0.00 | 88 | 1012.5 |
| 20260505084509 | 36 | 0 | 0.0 | 0.0 | 0.00 | 0.18 | 0.00 | 88 | 1012.5 |
| 20260505083609 | 36 | 0 | 0.0 | 0.0 | 0.00 | 0.18 | 0.00 | 88 | 1012.5 |
| 20260505082709 | 37 | 0 | 0.0 | 0.0 | 0.00 | 0.18 | 0.00 | 88 | 1012.5 |
| 20260505081830 | 37 | 0 | 0.0 | 0.0 | 0.00 | 0.18 | 0.00 | 88 | 1012.5 |
| 20260505080909 | 37 | 0 | 0.0 | 0.0 | 0.00 | 0.18 | 0.00 | 88 | 1012.5 |
| 20260505080011 | 37 | 0 | 0.0 | 0.0 | 0.00 | 0.18 | 0.00 | 88 | 1012.5 |
| 20260505075409 | 37 | 0 | 0.0 | 0.0 | 0.00 | 0.18 | 0.00 | 88 | 1012.5 |
| 20260505074509 | 37 | 0 | 0.0 | 0.0 | 0.00 | 0.18 | 0.00 | 88 | 1012.5 |
| 20260505073629 | 37 | 0 | 0.0 | 0.0 | 0.00 | 0.18 | 0.00 | 88 | 1012.5 |
| 20260505072709 | 37 | 0 | 0.0 | 0.0 | 0.00 | 0.18 | 0.00 | 88 | 1012.5 |
| 20260505071809 | 37 | 0 | 0.0 | 0.0 | 0.00 | 0.18 | 0.00 | 88 | 1012.5 |
| 20260505070909 | 36 | 0 | 0.0 | 0.0 | 0.00 | 0.18 | 0.00 | 88 | 1012.5 |
| 20260505070016 | 37 | 0 | 0.0 | 0.0 | 0.00 | 0.18 | 0.00 | 89 | 1012.5 |
| 20260505065408 | 37 | 0 | 0.0 | 0.0 | 0.00 | 0.18 | 0.00 | 89 | 1012.5 |
| 20260505064508 | 37 | 0 | 0.0 | 0.0 | 0.00 | 0.18 | 0.00 | 89 | 1012.5 |
| 20260505063609 | 37 | 0 | 0.0 | 0.0 | 0.00 | 0.18 | 0.00 | 89 | 1012.5 |
| 20260505062730 | 37 | 0 | 0.0 | 0.0 | 0.00 | 0.18 | 0.00 | 89 | 1012.5 |
| 20260505061830 | 37 | 0 | 0.0 | 0.0 | 0.00 | 0.18 | 0.00 | 89 | 1012.5 |
| 20260505060908 | 37 | 0 | 0.0 | 0.0 | 0.00 | 0.18 | 0.00 | 89 | 1012.5 |
| 20260505060012 | 37 | 0 | 0.0 | 0.0 | 0.00 | 0.18 | 0.00 | 89 | 1012.5 |
| 20260505055408 | 37 | 0 | 0.0 | 0.0 | 0.00 | 0.18 | 0.18 | 89 | 1012.5 |
| 20260505054509 | 37 | 0 | 0.0 | 0.0 | 0.00 | 0.18 | 0.18 | 89 | 1012.5 |
| 20260505053609 | 37 | 0 | 0.0 | 0.0 | 0.00 | 0.18 | 0.18 | 89 | 1012.5 |
| 20260505052708 | 37 | 0 | 0.0 | 0.0 | 0.00 | 0.18 | 0.18 | 89 | 1013.1 |
| 20260505051808 | 37 | 0 | 0.0 | 0.0 | 0.00 | 0.18 | 0.18 | 89 | 1013.1 |
| 20260505050929 | 37 | 0 | 0.0 | 0.0 | 0.00 | 0.18 | 0.18 | 89 | 1013.1 |
| 20260505040908 | 38 | 0 | 0.0 | 0.0 | 0.01 | 0.18 | 0.18 | 89 | 1013.3 |
| 20260505040008 | 38 | 0 | 0.0 | 0.0 | 0.02 | 0.18 | 0.18 | 88 | 1013.3 |
| 20260505035408 | 38 | 0 | 0.0 | 0.0 | 0.03 | 0.18 | 0.18 | 88 | 1013.3 |
| 20260505034508 | 38 | 234 | 0.0 | 2.0 | 0.07 | 0.18 | 0.18 | 88 | 1013.3 |